Location: North Smoke Tower Site
(30.5430°N, 82.3390°W)
Time: 18:21:16
(UTC-04:00)

Cosmos 1980 Rocket - Visible Passes

Search period start: 26 June 2017 00:00
Search period end: 06 July 2017 00:00
Orbit: 829 x 850 km, 71.0° (Epoch: 26 June)

Date Brightness Start Highest point End Pass type
(mag) Time Alt. Az. Time Alt. Az. Time Alt. Az.
02 Jul 3.0 05:55:53 10° S 06:01:23 53° ESE 06:06:53 10° NNE visible
03 Jul 3.1 05:40:18 10° S 05:45:44 49° ESE 05:51:10 10° NNE visible
04 Jul 3.2 05:24:42 10° S 05:30:04 45° ESE 05:35:27 10° NE visible
05 Jul 3.3 05:09:08 10° S 05:14:26 42° ESE 05:19:43 10° NE visible
